Location: Pedro
(43.9050°N, 104.3408°W)
Time: 02:51:27
(UTC+00:00)

X-37B - Pass Details

Date: 27 January 2022
Orbit: 329 x 342 km, 45.0° (Epoch: 18 May)

Event Time Altitude Azimuth Distance (km) Brightness Sun altitude
Rises 00:51:39 0° 202° (SSW) 2,105 4.9 -9.5°
Reaches altitude 10° 00:54:37 10° 167° (SSE) 1,269 3.2 -10.0°
Maximum altitude 00:55:42 12° 144° (SE) 1,179 2.8 -10.2°
Drops below altitude 10° 00:56:48 10° 121° (ESE) 1,270 2.8 -10.4°
Enters shadow 00:56:57 10° 119° (ESE) 1,293 2.8 -10.4°
